July 3, 2022

Time Code Weather Temp. Visibility Ceiling Wind METAR/SPECI
7:25 am
V
61 °F 6¼ mi+ - 230° 230° 5 kt METAR EHLE 030525Z AUTO 23005KT 9999 NSC 16/13 Q1017 NOSIG
6:55 am
V
59 °F 6¼ mi+ - Var Var 1 kt METAR EHLE 030455Z AUTO VRB01KT 9999 NSC 15/13 Q1017 NOSIG
6:25 am
V
55 °F 6¼ mi+ - Var Var 2 kt METAR EHLE 030425Z AUTO VRB02KT 9999 NSC 13/12 Q1017
5:55 am
V
55 °F 6¼ mi+ - Var Var 1 kt METAR EHLE 030355Z AUTO VRB01KT 9999 NSC 13/12 Q1017
5:25 am
V
55 °F 6¼ mi+ - Var Var 2 kt METAR EHLE 030325Z AUTO VRB02KT 9999 NSC 13/12 Q1017
4:55 am
V
54 °F 6¼ mi+ - 190° 190° 2 kt METAR EHLE 030255Z AUTO 19002KT 9999 NSC 12/11 Q1017
4:25 am
V
55 °F 6¼ mi+ - 230° 230° 2 kt METAR EHLE 030225Z AUTO 23002KT 9999 NCD 13/12 Q1017
3:55 am
V
57 °F 6¼ mi+ - 240° 240° 3 kt METAR EHLE 030155Z AUTO 24003KT 9999 NCD 14/12 Q1017
3:25 am
V
57 °F 6¼ mi+ - 260° 260° 4 kt METAR EHLE 030125Z AUTO 26004KT 9999 NCD 14/12 Q1017
2:55 am
V
57 °F 6¼ mi+ - 260° 260° 3 kt METAR EHLE 030055Z AUTO 26003KT 9999 NCD 14/13 Q1017
2:25 am
V
59 °F 6¼ mi+ - 270° 270° 4 kt METAR EHLE 030025Z AUTO 27004KT 9999 NCD 15/13 Q1017
1:55 am
V
61 °F 6¼ mi+ - 280° 280° 3 kt METAR EHLE 022355Z AUTO 28003KT 9999 NSC 16/13 Q1017
1:25 am
V
61 °F 6¼ mi+ - 270° 270° 2 kt METAR EHLE 022325Z AUTO 27002KT 9999 NSC 16/14 Q1017
12:55 am
V
63 °F 6¼ mi+ - 280° 280° 1 kt METAR EHLE 022255Z AUTO 28001KT 9999 NSC 17/15 Q1017
12:25 am
V
64 °F 6¼ mi+ - Var Var 2 kt METAR EHLE 022225Z AUTO VRB02KT 9999 NSC 18/14 Q1017

July 2, 2022

Time Code Weather Temp. Visibility Ceiling Wind METAR/SPECI
11:55 pm
V
64 °F 6¼ mi+ - 290° 290° 6 kt METAR EHLE 022155Z AUTO 29006KT 9999 NSC 18/14 Q1018
11:25 pm
V
64 °F 6¼ mi+ - 260° 260° 1 kt METAR EHLE 022125Z AUTO 26001KT 9999 NSC 18/15 Q1018
10:55 pm
V
66 °F 6¼ mi+ - Var 000° 0 kt METAR EHLE 022055Z AUTO 00000KT 9999 NSC 19/15 Q1018
10:25 pm
V
66 °F 6¼ mi+ - Var Var 1 kt METAR EHLE 022025Z AUTO VRB01KT 9999 NSC 19/15 Q1018
9:55 pm
V
66 °F 6¼ mi+ - Var 000° 0 kt METAR EHLE 021955Z AUTO 00000KT 9999 NSC 19/15 Q1017
9:25 pm
V
70 °F 6¼ mi+ - Var Var 2 kt METAR EHLE 021925Z AUTO VRB02KT 9999 NSC 21/13 Q1017 NOSIG
8:55 pm
V
70 °F 6¼ mi+ - 230° 230° 4 kt METAR EHLE 021855Z AUTO 23004KT 9999 NSC 21/13 Q1018 NOSIG
8:25 pm
V
72 °F 6¼ mi+ - 230° 230° 7 kt METAR EHLE 021825Z AUTO 23007KT 9999 NSC 22/12 Q1018 NOSIG
7:55 pm
V
73 °F 6¼ mi+ - 230° 230° 6 kt METAR EHLE 021755Z AUTO 23006KT 9999 NSC 23/12 Q1018 NOSIG
7:25 pm
V
73 °F 6¼ mi+ - 220° 220° 7 kt METAR EHLE 021725Z AUTO 22007KT 170V270 9999 NSC 23/11 Q1018 NOSIG
6:55 pm
V
73 °F 6¼ mi+ - 230° 230° 5 kt METAR EHLE 021655Z AUTO 23005KT 180V270 9999 NSC 23/12 Q1018 NOSIG
6:25 pm
V
73 °F 6¼ mi+ - 220° 220° 4 kt METAR EHLE 021625Z AUTO 22004KT 9999 NSC 23/12 Q1018 NOSIG
5:55 pm
V
72 °F 6¼ mi+ - 200° 200° 5 kt METAR EHLE 021555Z AUTO 20005KT 170V230 9999 NSC 22/12 Q1019 NOSIG
5:25 pm
V
72 °F 6¼ mi+ - 190° 190° 6 kt METAR EHLE 021525Z AUTO 19006KT 160V220 9999 NSC 22/12 Q1019 NOSIG
4:55 pm
V
72 °F 6¼ mi+ - 200° 200° 8 kt METAR EHLE 021455Z AUTO 20008KT 160V240 9999 NSC 22/11 Q1019 NOSIG
4:25 pm
V
72 °F 6¼ mi+ - 200° 200° 8 kt METAR EHLE 021425Z AUTO 20008KT 150V230 9999 NSC 22/11 Q1019 NOSIG
3:55 pm
V
70 °F 6¼ mi+ - 190° 190° 6 kt METAR EHLE 021355Z AUTO 19006KT 150V220 9999 NSC 21/12 Q1019 NOSIG
3:25 pm
V
73 °F 6¼ mi+ - 200° 200° 5 kt METAR EHLE 021325Z AUTO 20005KT 160V250 9999 FEW049 23/11 Q1020 NOSIG
2:55 pm
V
72 °F 6¼ mi+ - 200° 200° 6 kt METAR EHLE 021255Z AUTO 20006KT 150V240 9999 NSC 22/12 Q1020 NOSIG
2:25 pm
V
70 °F 6¼ mi+ - 210° 210° 7 kt METAR EHLE 021225Z AUTO 21007KT 160V240 9999 NSC 21/11 Q1020 NOSIG
1:55 pm
V
70 °F 6¼ mi+ - 220° 220° 9 kt METAR EHLE 021155Z AUTO 22009KT 180V270 9999 NSC 21/09 Q1020 NOSIG
1:25 pm
V
72 °F 6¼ mi+ - 210° 210° 10 kt METAR EHLE 021125Z AUTO 21010KT 160V260 9999 NSC 22/10 Q1020 NOSIG
12:55 pm
V
70 °F 6¼ mi+ - 200° 200° 10 kt METAR EHLE 021055Z AUTO 20010KT 150V250 9999 NSC 21/10 Q1021 NOSIG
12:25 pm
V
70 °F 6¼ mi+ - 210° 210° 10 kt METAR EHLE 021025Z AUTO 21010KT 180V250 9999 NSC 21/10 Q1021 NOSIG
11:55 am
V
70 °F 6¼ mi+ - 190° 190° 10 kt METAR EHLE 020955Z AUTO 19010KT 150V230 9999 NSC 21/10 Q1021 NOSIG
11:25 am
V
68 °F 6¼ mi+ - 200° 200° 10 kt METAR EHLE 020925Z AUTO 20010KT 170V240 9999 NSC 20/10 Q1021 NOSIG
10:55 am
V
68 °F 6¼ mi+ - 210° 210° 10 kt METAR EHLE 020855Z AUTO 21010KT 170V250 9999 NSC 20/10 Q1021 NOSIG
10:25 am
V
66 °F 6¼ mi+ - 200° 200° 8 kt METAR EHLE 020825Z AUTO 20008KT 160V250 9999 NSC 19/11 Q1021 NOSIG
9:55 am
V
64 °F 6¼ mi+ - 200° 200° 9 kt METAR EHLE 020755Z AUTO 20009KT 170V230 9999 NCD 18/12 Q1021 NOSIG
9:25 am
V
63 °F 6¼ mi+ - 200° 200° 10 kt METAR EHLE 020725Z AUTO 20010KT 170V230 9999 NSC 17/12 Q1021 NOSIG
8:55 am
V
61 °F 6¼ mi+ - 200° 200° 9 kt METAR EHLE 020655Z AUTO 20009KT 170V230 9999 NCD 16/13 Q1021 NOSIG
8:25 am
V
61 °F 6¼ mi+ - 200° 200° 7 kt METAR EHLE 020625Z AUTO 20007KT 160V230 9999 NCD 16/12 Q1021 NOSIG
7:55 am
V
59 °F 6¼ mi+ - 210° 210° 8 kt METAR EHLE 020555Z AUTO 21008KT 180V240 9999 NCD 15/12 Q1021 NOSIG
7:25 am
V
57 °F 6¼ mi+ - 200° 200° 6 kt METAR EHLE 020525Z AUTO 20006KT 170V230 9999 NCD 14/11 Q1021 NOSIG
6:55 am
V
55 °F 6¼ mi+ - 200° 200° 6 kt METAR EHLE 020455Z AUTO 20006KT 9999 NCD 13/11 Q1021 NOSIG
6:25 am
V
52 °F 6¼ mi+ - 190° 190° 5 kt METAR EHLE 020425Z AUTO 19005KT 9999 NCD 11/10 Q1021
5:55 am
V
50 °F 6¼ mi+ - 190° 190° 5 kt METAR EHLE 020355Z AUTO 19005KT 9999 NCD 10/10 Q1021
5:25 am
V
50 °F 6¼ mi+ - 190° 190° 6 kt METAR EHLE 020325Z AUTO 19006KT 9999 NCD 10/09 Q1020
4:55 am
V
50 °F 6¼ mi+ - 190° 190° 5 kt METAR EHLE 020255Z AUTO 19005KT 9999 NCD 10/10 Q1020
4:25 am
V
50 °F 6¼ mi+ - 190° 190° 5 kt METAR EHLE 020225Z AUTO 19005KT 9999 NCD 10/10 Q1020
3:55 am
V
50 °F 6¼ mi+ - 170° 170° 5 kt METAR EHLE 020155Z AUTO 17005KT 9999 NCD 10/10 Q1020
3:25 am
V
50 °F 6¼ mi+ - 170° 170° 6 kt METAR EHLE 020125Z AUTO 17006KT 9999 NCD 10/10 Q1020
2:55 am
V
52 °F 6¼ mi+ - 170° 170° 5 kt METAR EHLE 020055Z AUTO 17005KT 9999 NCD 11/10 Q1021
2:25 am
V
52 °F 6¼ mi+ - 170° 170° 5 kt METAR EHLE 020025Z AUTO 17005KT 9999 NCD 11/10 Q1021
1:55 am
V
52 °F 6¼ mi+ - 180° 180° 5 kt METAR EHLE 012355Z AUTO 18005KT 9999 NCD 11/10 Q1021
1:25 am
V
54 °F 6¼ mi+ - 200° 200° 5 kt METAR EHLE 012325Z AUTO 20005KT 9999 NCD 12/10 Q1020
12:55 am
V
54 °F 6¼ mi+ - 200° 200° 4 kt METAR EHLE 012255Z AUTO 20004KT 9999 NCD 12/10 Q1021
12:25 am
V
54 °F 6¼ mi+ - 190° 190° 6 kt METAR EHLE 012225Z AUTO 19006KT 9999 NCD 12/11 Q1020

July 1, 2022

Time Code Weather Temp. Visibility Ceiling Wind METAR/SPECI
11:55 pm
V
55 °F 6¼ mi+ - 190° 190° 5 kt METAR EHLE 012155Z AUTO 19005KT 9999 NCD 13/11 Q1020
11:25 pm
V
57 °F 6¼ mi+ - 220° 220° 4 kt METAR EHLE 012125Z AUTO 22004KT 9999 NCD 14/11 Q1020
10:55 pm
V
57 °F 6¼ mi+ - 220° 220° 5 kt METAR EHLE 012055Z AUTO 22005KT 9999 NCD 14/11 Q1020
10:25 pm
V
59 °F 6¼ mi+ - 230° 230° 6 kt METAR EHLE 012025Z AUTO 23006KT 9999 NCD 15/11 Q1020 NOSIG
9:55 pm
V
61 °F 6¼ mi+ - 220° 220° 6 kt METAR EHLE 011955Z AUTO 22006KT 9999 NCD 16/11 Q1019 NOSIG
9:25 pm
V
63 °F 6¼ mi+ - 230° 230° 8 kt METAR EHLE 011925Z AUTO 23008KT 9999 NCD 17/12 Q1019 NOSIG
8:55 pm
V
64 °F 6¼ mi+ - 230° 230° 7 kt METAR EHLE 011855Z AUTO 23007KT 9999 FEW036 18/12 Q1019 NOSIG
8:25 pm
V
66 °F 6¼ mi+ - 220° 220° 8 kt METAR EHLE 011825Z AUTO 22008KT 190V250 9999 NCD 19/11 Q1019 NOSIG
7:55 pm
V
66 °F 6¼ mi+ - 210° 210° 11 kt METAR EHLE 011755Z AUTO 21011KT 180V240 9999 FEW036 19/12 Q1018 NOSIG
7:25 pm
V
68 °F 6¼ mi+ - 220° 220° 11 kt METAR EHLE 011725Z AUTO 22011KT 190V250 9999 NCD 20/11 Q1018 NOSIG
6:55 pm
V
66 °F 6¼ mi+ - 220° 220° 11 kt METAR EHLE 011655Z AUTO 22011KT 190V260 9999 FEW039 19/11 Q1018 NOSIG
6:25 pm
V
68 °F 6¼ mi+ - 230° 230° 11 kt METAR EHLE 011625Z AUTO 23011KT 200V270 9999 FEW039 20/12 Q1018 NOSIG
5:55 pm
V
68 °F 6¼ mi+ - 240° 240° 13 kt METAR EHLE 011555Z AUTO 24013KT 9999 NSC 20/11 Q1018 NOSIG
5:25 pm
V
68 °F 6¼ mi+ - 230° 230° 14 kt METAR EHLE 011525Z AUTO 23014KT 200V260 9999 FEW040 20/11 Q1018 NOSIG
4:55 pm
V
68 °F 6¼ mi+ - 230° 230° 16 kt METAR EHLE 011455Z AUTO 23016KT 9999 FEW038 SCT044 20/11 Q1018 NOSIG
4:25 pm
V
64 °F 6¼ mi+ - 230° 230° 14 kt METAR EHLE 011425Z AUTO 23014KT 190V260 9999 FEW036 18/10 Q1017 NOSIG
3:55 pm
V
66 °F 6¼ mi+ - 240° 240° 14 kt METAR EHLE 011355Z AUTO 24014KT 9999 NSC 19/11 Q1017 NOSIG
3:25 pm
V
64 °F 6¼ mi+ - 240° 240° 13 kt METAR EHLE 011325Z AUTO 24013KT 210V280 9999 FEW045 18/11 Q1017 NOSIG
2:55 pm
V
70 °F 6¼ mi+ - 240° 240° 13 kt METAR EHLE 011255Z AUTO 24013KT 210V270 9999 FEW036 SCT041 21/12 Q1017 NOSIG
2:25 pm
V
68 °F 6¼ mi+ - 220° 220° 15 kt METAR EHLE 011225Z AUTO 22015KT 190V250 9999 FEW036 20/12 Q1017 NOSIG
1:55 pm
V
64 °F 6¼ mi+ 4,000 ft 240° 240° 12 kt METAR EHLE 011155Z AUTO 24012KT 200V270 9999 SCT032 BKN040 BKN046 18/12 Q1017 NOSIG
1:25 pm
V
64 °F 6¼ mi+ - 230° 230° 11 kt METAR EHLE 011125Z AUTO 23011KT 9999 NSC 18/11 Q1017 TEMPO -SHRA FEW022CB
12:55 pm
V
66 °F 6¼ mi+ - 230° 230° 14 kt METAR EHLE 011055Z AUTO 23014KT 200V260 9999 NSC 19/12 Q1017 TEMPO -SHRA FEW022CB
12:25 pm
V
66 °F 6¼ mi+ - 230° 230° 12 kt METAR EHLE 011025Z AUTO 23012KT 190V250 9999 NSC 19/12 Q1016 TEMPO -SHRA FEW020CB
11:55 am
V
64 °F 6¼ mi+ - 220° 220° 12 kt METAR EHLE 010955Z AUTO 22012KT 190V250 9999 FEW023 SCT040 18/12 Q1016 TEMPO -SHRA FEW020CB
11:25 am
V
63 °F 6¼ mi+ - 220° 220° 11 kt METAR EHLE 010925Z AUTO 22011KT 190V250 9999 FEW030 17/12 Q1016 TEMPO -SHRA FEW020CB
10:55 am
M
64 °F 6¼ mi+ 2,000 ft 220° 220° 12 kt METAR EHLE 010855Z AUTO 22012KT 180V260 9999 BKN020 BKN024 BKN029 18/13 Q1016 NOSIG
10:25 am
M
63 °F 6¼ mi+ 2,000 ft 220° 220° 11 kt METAR EHLE 010825Z AUTO 22011KT 180V260 9999 SCT016 BKN020 BKN025 17/13 Q1016 NOSIG
9:55 am
M
61 °F 6¼ mi+ 1,600 ft 220° 220° 12 kt METAR EHLE 010755Z AUTO 22012KT 180V260 9999 FEW011 SCT013 BKN016 16/14 Q1015 NOSIG
9:25 am
M
59 °F 6¼ mi+ 1,000 ft 210° 210° 7 kt METAR EHLE 010725Z AUTO 21007KT 180V240 9999 FEW008 BKN010 BKN013 15/14 Q1015 BECMG SCT015
8:55 am
I
59 °F 6¼ mi+ 900 ft 210° 210° 8 kt METAR EHLE 010655Z AUTO 21008KT 170V250 9999 FEW007 BKN009 OVC011 15/14 Q1015 BECMG SCT010
8:25 am
I
57 °F 5 mi 700 ft 210° 210° 8 kt METAR EHLE 010625Z AUTO 21008KT 8000 FEW005 SCT006 BKN007 14/13 Q1015 BECMG SCT010
7:55 am
I
57 °F 4⅜ mi 600 ft 200° 200° 7 kt METAR EHLE 010555Z AUTO 20007KT 7000 SCT005 BKN006 BKN008 14/13 Q1015 BECMG 9999 FEW010
7:25 am
I
55 °F 4⅜ mi 800 ft 200° 200° 7 kt METAR EHLE 010525Z AUTO 20007KT 7000 SCT006 BKN008 BKN009 13/13 Q1015 BECMG 9999 FEW010
6:55 am
M
55 °F 4⅜ mi - 200° 200° 7 kt METAR EHLE 010455Z AUTO 20007KT 7000 NSC 13/13 Q1015 BECMG 9999
6:25 am
M
55 °F 3¾ mi - 200° 200° 7 kt METAR EHLE 010425Z AUTO 20007KT 6000 BR NSC 13/13 Q1015
5:55 am
M
55 °F 3⅛ mi - 190° 190° 7 kt METAR EHLE 010355Z AUTO 19007KT 170V230 5000 BR NSC 13/13 Q1014
5:25 am
M
55 °F 3¾ mi - 210° 210° 8 kt METAR EHLE 010325Z AUTO 21008KT 6000 NCD 13/13 Q1014
4:55 am
I
57 °F 3¾ mi 900 ft 210° 210° 8 kt METAR EHLE 010255Z AUTO 21008KT 190V250 6000 BR FEW008 BKN009 14/13 Q1014
Older data

Download our app

Easy access to all aviation weather on your mobile phone and tablet.
With many features not available on the website, like offline support and a personal airport list.

We and third parties follow your internet behavior on our website with cookies. If you continue, we assume you agree with our cookie policy. Learn more